Belle Chasse — WDG2912 — position and weather

sailwx.info

Track history (hours):
 
Tides and Currents Weather Stations Pressure Air Temp Water Temp Dewpoint Dewpoint Depression Visibility Wind Speed Wind Dir Waves Ship Positions

Belle Chasse

Owner: Higman Barge Lines, Inc, Orange, TX. More information available from US FCC via Universal Licensing System and Coast Guard Vessel Documentation Center.

Last reported at 2017-Aug-22 00:15 UTC. Time now 2017-Oct-23 00:59 UTC.
Position N 29°29' W 094°52'.
Warning: this ship's position is months out of date.

Length 26 m; draft 3 m.

Type: Towing. MMSI: 367520550.

Date/timePositionNaut miles runAvg speedWind from/ knotsBaromVisibWave heightAir tempDewpointWater temp
2017-Aug-22 00:15N 29°29' W 094°52'2 7.4
2017-Aug-22 00:00N 29°30' W 094°52'4 7.3
2017-Aug-21 23:31N 29°33' W 094°55'4 7.3
2017-Aug-21 23:01N 29°36' W 094°57'4 7.5
2017-Aug-21 22:30N 29°40' W 094°59'4 7.3
2017-Aug-21 22:01N 29°43' W 095°01'3 6.8
2017-Aug-21 21:31N 29°45' W 095°04'4 0.2
2017-Aug-20 22:28N 29°44' W 095°08'0 0.7
2017-Aug-20 22:00N 29°44' W 095°09'1 1.9
2017-Aug-20 21:29N 29°44' W 095°10'0 0.1
2017-Aug-20 20:56N 29°44' W 095°10'0 0.0
2017-Aug-20 20:11N 29°44' W 095°10'0 0.0
2017-Aug-20 01:13N 29°45' W 095°10'1 3.5
2017-Aug-20 00:57N 29°44' W 095°09'2 3.6
2017-Aug-20 00:30N 29°44' W 095°07'2 3.7
2017-Aug-20 00:00N 29°46' W 095°05'1 1.9
2017-Aug-19 23:18N 29°47' W 095°05'1 1.3
2017-Aug-19 22:51N 29°47' W 095°05'1 1.4
2017-Aug-19 22:07N 29°47' W 095°06'0 0.1
2017-Aug-19 21:46N 29°47' W 095°06'1 4.6
2017-Aug-19 21:29N 29°47' W 095°04'2 1.0
2017-Aug-19 19:16N 29°45' W 095°06'2 0.3
2017-Aug-19 13:55N 29°47' W 095°06'0 0.0
2017-Aug-19 11:30N 29°47' W 095°06'1 0.9
2017-Aug-19 10:54N 29°47' W 095°05'1 1.1
2017-Aug-19 10:14N 29°46' W 095°05'1 2.2
2017-Aug-19 10:00N 29°46' W 095°05'2 3.9
2017-Aug-19 09:30N 29°44' W 095°03'3 5.1
2017-Aug-19 09:00N 29°43' W 095°01'3 5.5
2017-Aug-19 08:30N 29°41' W 094°59'3 5.8
2017-Aug-19 08:00N 29°38' W 094°58'3 5.8
2017-Aug-19 07:31N 29°36' W 094°56'3 5.8
2017-Aug-19 07:01N 29°33' W 094°55'3 6.1
2017-Aug-19 06:31N 29°31' W 094°53'68 4.0
2017-Aug-18 13:30N 30°03' W 093°44'2 4.7
2017-Aug-18 13:00N 30°04' W 093°41'3 5.1
2017-Aug-18 12:30N 30°04' W 093°38'2 4.9
2017-Aug-18 12:00N 30°04' W 093°35'2 4.9
2017-Aug-18 11:30N 30°04' W 093°33'2 4.6
2017-Aug-18 11:00N 30°04' W 093°30'2 4.2
2017-Aug-18 10:30N 30°04' W 093°27'2 3.4
2017-Aug-18 10:00N 30°04' W 093°25'2 4.1
2017-Aug-18 09:30N 30°04' W 093°23'2 3.9
2017-Aug-18 09:00N 30°04' W 093°21'2 3.7
2017-Aug-18 08:30N 30°05' W 093°20'1 3.0
2017-Aug-18 08:00N 30°05' W 093°18'1 3.0
2017-Aug-18 07:31N 30°05' W 093°17'2 3.9
2017-Aug-18 07:01N 30°03' W 093°16'2 4.2
2017-Aug-18 06:30N 30°01' W 093°14'2 3.5
2017-Aug-18 05:59N 29°60' W 093°13'0 0.8
2017-Aug-18 05:30N 29°59' W 093°13'2 4.7
2017-Aug-18 05:00N 29°58' W 093°11'2 4.8
2017-Aug-18 04:30N 29°56' W 093°09'2 4.7
2017-Aug-18 04:00N 29°56' W 093°06'2 4.2
2017-Aug-18 03:30N 29°56' W 093°04'35 4.9
2017-Aug-17 20:29N 29°53' W 092°24'3 4.3
2017-Aug-17 19:45N 29°51' W 092°21'1 3.9
2017-Aug-17 19:30N 29°51' W 092°20'2 4.1
2017-Aug-17 19:00N 29°50' W 092°18'2 3.6
2017-Aug-17 18:30N 29°49' W 092°17'2 4.8
2017-Aug-17 18:00N 29°48' W 092°14'2 3.7
2017-Aug-17 17:30N 29°47' W 092°12'1 2.0
2017-Aug-17 17:00N 29°47' W 092°11'1 1.2
2017-Aug-17 16:30N 29°46' W 092°10'0 0.6
2017-Aug-17 16:00N 29°47' W 092°10'1 1.0
2017-Aug-17 15:30N 29°47' W 092°10'1 1.7
2017-Aug-17 15:00N 29°47' W 092°09'2 4.4
2017-Aug-17 14:30N 29°48' W 092°06'3 5.4
2017-Aug-17 14:00N 29°49' W 092°03'3 5.4
2017-Aug-17 13:30N 29°50' W 092°00'56 4.0
2017-Aug-16 23:45N 29°36' W 090°58'2 5.1
2017-Aug-16 23:27N 29°35' W 090°57'3 5.2
2017-Aug-16 22:57N 29°33' W 090°55'2 4.9
2017-Aug-16 22:28N 29°32' W 090°52'2 5.1
2017-Aug-16 22:01N 29°32' W 090°50'3 5.1
2017-Aug-16 21:31N 29°32' W 090°47'2 4.2
2017-Aug-16 21:01N 29°34' W 090°45'2 3.5
2017-Aug-16 20:30N 29°34' W 090°43'1 2.3
2017-Aug-16 20:01N 29°35' W 090°43'2 3.0
2017-Aug-16 19:30N 29°37' W 090°42'2 4.4
2017-Aug-16 19:00N 29°36' W 090°40'2 4.6
2017-Aug-16 18:30N 29°35' W 090°38'2 3.9
2017-Aug-16 18:00N 29°35' W 090°35'2 3.7
2017-Aug-16 17:30N 29°34' W 090°33'2 4.6
2017-Aug-16 17:00N 29°34' W 090°31'4 4.6
2017-Aug-16 16:08N 29°33' W 090°26'  
2017-Aug-13 08:51N 29°33' W 090°26'2 5.7
2017-Aug-13 08:31N 29°33' W 090°28'3 5.6
2017-Aug-13 08:01N 29°34' W 090°31'3 5.3
2017-Aug-13 07:30N 29°34' W 090°34'2 4.5
2017-Aug-13 07:01N 29°35' W 090°37'2 4.9
2017-Aug-13 06:31N 29°36' W 090°39'2 4.3
2017-Aug-13 06:00N 29°37' W 090°42'1 2.7
2017-Aug-13 05:31N 29°36' W 090°43'2 3.4
2017-Aug-13 05:01N 29°34' W 090°43'2 4.2
2017-Aug-13 04:31N 29°33' W 090°45'3 6.0
2017-Aug-13 04:00N 29°32' W 090°49'3 5.8
2017-Aug-13 03:30N 29°32' W 090°52'3 5.7
2017-Aug-13 02:58N 29°33' W 090°55'3 5.5
2017-Aug-13 02:30N 29°35' W 090°58'3 5.4
2017-Aug-13 01:58N 29°37' W 090°60'47 4.1
2017-Aug-12 14:38N 29°51' W 091°51'1 5.3
2017-Aug-12 14:25N 29°51' W 091°53'2 5.2
2017-Aug-12 13:59N 29°51' W 091°55'2 5.2
2017-Aug-12 13:30N 29°50' W 091°58'3 5.4
2017-Aug-12 13:00N 29°49' W 092°01'3 5.3
2017-Aug-12 12:30N 29°48' W 092°04'3 5.4
2017-Aug-12 12:00N 29°48' W 092°07'3 5.4
2017-Aug-12 11:30N 29°47' W 092°10'2 4.2
2017-Aug-12 11:00N 29°47' W 092°12'3 5.4
2017-Aug-12 10:30N 29°48' W 092°15'3 5.1
2017-Aug-12 10:00N 29°49' W 092°18'2 4.3
2017-Aug-12 09:30N 29°50' W 092°20'3 4.4
2017-Aug-12 08:49N 29°52' W 092°22'2 4.9
2017-Aug-12 08:30N 29°53' W 092°24'  
Track history (hours):
 
Tides and Currents Weather Stations Pressure Air Temp Water Temp Dewpoint Dewpoint Depression Visibility Wind Speed Wind Dir Waves Ship Positions

Belle Chasse

Owner: Higman Barge Lines, Inc, Orange, TX. More information available from US FCC via Universal Licensing System and Coast Guard Vessel Documentation Center.

Last reported at 2017-Aug-22 00:15 UTC. Time now 2017-Oct-23 00:59 UTC.
Position N 29°29' W 094°52'.
Warning: this ship's position is months out of date.

Length 26 m; draft 3 m.

Type: Towing. MMSI: 367520550.

Date/timePositionNaut miles runAvg speedWind from/ knotsBaromVisibWave heightAir tempDewpointWater temp
2017-Aug-22 00:15N 29°29' W 094°52'2 7.4
2017-Aug-22 00:00N 29°30' W 094°52'4 7.3
2017-Aug-21 23:31N 29°33' W 094°55'4 7.3
2017-Aug-21 23:01N 29°36' W 094°57'4 7.5
2017-Aug-21 22:30N 29°40' W 094°59'4 7.3
2017-Aug-21 22:01N 29°43' W 095°01'3 6.8
2017-Aug-21 21:31N 29°45' W 095°04'4 0.2
2017-Aug-20 22:28N 29°44' W 095°08'0 0.7
2017-Aug-20 22:00N 29°44' W 095°09'1 1.9
2017-Aug-20 21:29N 29°44' W 095°10'0 0.1
2017-Aug-20 20:56N 29°44' W 095°10'0 0.0
2017-Aug-20 20:11N 29°44' W 095°10'0 0.0
2017-Aug-20 01:13N 29°45' W 095°10'1 3.5
2017-Aug-20 00:57N 29°44' W 095°09'2 3.6
2017-Aug-20 00:30N 29°44' W 095°07'2 3.7
2017-Aug-20 00:00N 29°46' W 095°05'1 1.9
2017-Aug-19 23:18N 29°47' W 095°05'1 1.3
2017-Aug-19 22:51N 29°47' W 095°05'1 1.4
2017-Aug-19 22:07N 29°47' W 095°06'0 0.1
2017-Aug-19 21:46N 29°47' W 095°06'1 4.6
2017-Aug-19 21:29N 29°47' W 095°04'2 1.0
2017-Aug-19 19:16N 29°45' W 095°06'2 0.3
2017-Aug-19 13:55N 29°47' W 095°06'0 0.0
2017-Aug-19 11:30N 29°47' W 095°06'1 0.9
2017-Aug-19 10:54N 29°47' W 095°05'1 1.1
2017-Aug-19 10:14N 29°46' W 095°05'1 2.2
2017-Aug-19 10:00N 29°46' W 095°05'2 3.9
2017-Aug-19 09:30N 29°44' W 095°03'3 5.1
2017-Aug-19 09:00N 29°43' W 095°01'3 5.5
2017-Aug-19 08:30N 29°41' W 094°59'3 5.8
2017-Aug-19 08:00N 29°38' W 094°58'3 5.8
2017-Aug-19 07:31N 29°36' W 094°56'3 5.8
2017-Aug-19 07:01N 29°33' W 094°55'3 6.1
2017-Aug-19 06:31N 29°31' W 094°53'68 4.0
2017-Aug-18 13:30N 30°03' W 093°44'2 4.7
2017-Aug-18 13:00N 30°04' W 093°41'3 5.1
2017-Aug-18 12:30N 30°04' W 093°38'2 4.9
2017-Aug-18 12:00N 30°04' W 093°35'2 4.9
2017-Aug-18 11:30N 30°04' W 093°33'2 4.6
2017-Aug-18 11:00N 30°04' W 093°30'2 4.2
2017-Aug-18 10:30N 30°04' W 093°27'2 3.4
2017-Aug-18 10:00N 30°04' W 093°25'2 4.1
2017-Aug-18 09:30N 30°04' W 093°23'2 3.9
2017-Aug-18 09:00N 30°04' W 093°21'2 3.7
2017-Aug-18 08:30N 30°05' W 093°20'1 3.0
2017-Aug-18 08:00N 30°05' W 093°18'1 3.0
2017-Aug-18 07:31N 30°05' W 093°17'2 3.9
2017-Aug-18 07:01N 30°03' W 093°16'2 4.2
2017-Aug-18 06:30N 30°01' W 093°14'2 3.5
2017-Aug-18 05:59N 29°60' W 093°13'0 0.8
2017-Aug-18 05:30N 29°59' W 093°13'2 4.7
2017-Aug-18 05:00N 29°58' W 093°11'2 4.8
2017-Aug-18 04:30N 29°56' W 093°09'2 4.7
2017-Aug-18 04:00N 29°56' W 093°06'2 4.2
2017-Aug-18 03:30N 29°56' W 093°04'35 4.9
2017-Aug-17 20:29N 29°53' W 092°24'3 4.3
2017-Aug-17 19:45N 29°51' W 092°21'1 3.9
2017-Aug-17 19:30N 29°51' W 092°20'2 4.1
2017-Aug-17 19:00N 29°50' W 092°18'2 3.6
2017-Aug-17 18:30N 29°49' W 092°17'2 4.8
2017-Aug-17 18:00N 29°48' W 092°14'2 3.7
2017-Aug-17 17:30N 29°47' W 092°12'1 2.0
2017-Aug-17 17:00N 29°47' W 092°11'1 1.2
2017-Aug-17 16:30N 29°46' W 092°10'0 0.6
2017-Aug-17 16:00N 29°47' W 092°10'1 1.0
2017-Aug-17 15:30N 29°47' W 092°10'1 1.7
2017-Aug-17 15:00N 29°47' W 092°09'2 4.4
2017-Aug-17 14:30N 29°48' W 092°06'3 5.4
2017-Aug-17 14:00N 29°49' W 092°03'3 5.4
2017-Aug-17 13:30N 29°50' W 092°00'56 4.0
2017-Aug-16 23:45N 29°36' W 090°58'2 5.1
2017-Aug-16 23:27N 29°35' W 090°57'3 5.2
2017-Aug-16 22:57N 29°33' W 090°55'2 4.9
2017-Aug-16 22:28N 29°32' W 090°52'2 5.1
2017-Aug-16 22:01N 29°32' W 090°50'3 5.1
2017-Aug-16 21:31N 29°32' W 090°47'2 4.2
2017-Aug-16 21:01N 29°34' W 090°45'2 3.5
2017-Aug-16 20:30N 29°34' W 090°43'1 2.3
2017-Aug-16 20:01N 29°35' W 090°43'2 3.0
2017-Aug-16 19:30N 29°37' W 090°42'2 4.4
2017-Aug-16 19:00N 29°36' W 090°40'2 4.6
2017-Aug-16 18:30N 29°35' W 090°38'2 3.9
2017-Aug-16 18:00N 29°35' W 090°35'2 3.7
2017-Aug-16 17:30N 29°34' W 090°33'2 4.6
2017-Aug-16 17:00N 29°34' W 090°31'4 4.6
2017-Aug-16 16:08N 29°33' W 090°26'  
2017-Aug-13 08:51N 29°33' W 090°26'2 5.7
2017-Aug-13 08:31N 29°33' W 090°28'3 5.6
2017-Aug-13 08:01N 29°34' W 090°31'3 5.3
2017-Aug-13 07:30N 29°34' W 090°34'2 4.5
2017-Aug-13 07:01N 29°35' W 090°37'2 4.9
2017-Aug-13 06:31N 29°36' W 090°39'2 4.3
2017-Aug-13 06:00N 29°37' W 090°42'1 2.7
2017-Aug-13 05:31N 29°36' W 090°43'2 3.4
2017-Aug-13 05:01N 29°34' W 090°43'2 4.2
2017-Aug-13 04:31N 29°33' W 090°45'3 6.0
2017-Aug-13 04:00N 29°32' W 090°49'3 5.8
2017-Aug-13 03:30N 29°32' W 090°52'3 5.7
2017-Aug-13 02:58N 29°33' W 090°55'3 5.5
2017-Aug-13 02:30N 29°35' W 090°58'3 5.4
2017-Aug-13 01:58N 29°37' W 090°60'47 4.1
2017-Aug-12 14:38N 29°51' W 091°51'1 5.3
2017-Aug-12 14:25N 29°51' W 091°53'2 5.2
2017-Aug-12 13:59N 29°51' W 091°55'2 5.2
2017-Aug-12 13:30N 29°50' W 091°58'3 5.4
2017-Aug-12 13:00N 29°49' W 092°01'3 5.3
2017-Aug-12 12:30N 29°48' W 092°04'3 5.4
2017-Aug-12 12:00N 29°48' W 092°07'3 5.4
2017-Aug-12 11:30N 29°47' W 092°10'2 4.2
2017-Aug-12 11:00N 29°47' W 092°12'3 5.4
2017-Aug-12 10:30N 29°48' W 092°15'3 5.1
2017-Aug-12 10:00N 29°49' W 092°18'2 4.3
2017-Aug-12 09:30N 29°50' W 092°20'3 4.4
2017-Aug-12 08:49N 29°52' W 092°22'2 4.9
2017-Aug-12 08:30N 29°53' W 092°24'  

Dump ship's entire track history